SCP
0 0 -0 0 0 0 0 0 0 0 0 0 0 0 0 0 0 0 -0 -0 -0 -0 0 0 0 -0 -0 0 0 0 0 0 0 0 0 0 0 0 0 0 0 0 0 0 0 0 0 0 0
0 0 -0 0 -0 0 -0 0 0 0 0 -0 -0 0 0 0 0 0 0 -0 -0 0 0 0 -0 0 -0 0 0 0 0 0 0 0 0 0 0 0 0 0 0 0 0 0 0 0 0 0 0
0 0 -0 -0 0 0 -0 -0 0 0 0 0 -0 -0 0 0 -0 -0 -0 -0 -0 0 0 0 0 -0 0 0 0 0 0 0 0 0 0 0 0 0 0 0 0 0 0 0 0 0 0 0 0
-0 0 0 0 0 0 0 -0 -0 0 0 0 0 -0 0 -0 -0 -0 -0 -0 -0 0 0 0 0 0 0 0 0 0 0 0 0 0 0 0 0 0 0 0 0 0 0 0 0 0 0 0 0
0 0 -0 0 0 -0 0 0 0 0 0 0 0 0 -0 -0 -0 -0 -0 -0 -0 -0 0 0 0 0 0 0 0 0 0 0 0 0 0 0 0 0 0 0 0 0 0 0 -0 -0 -0 -0 -0
0 0 0 0 -0 -0 0 0 0 -0 -0 0 -0 0 -0 -0 -0 -0 -0 -0 -0 -0 0 0 0 0 0 0 0 0 0 0 0 0 0 0 0 0 0 0 -0 -0 -0 -0 -0 -0 -0 -0 -0
0 0 0 0 0 -0 0 0 0 0 0 0 0 0 0 0 0 -0 -0 -0 -0 -0 0 0 0 0 0 0 0 0 0 0 0 0 0 0 0 -0 -0 -0 -0 -0 -0 -0 -0 -0 -0 -0 -0
0 0 0 0 -0 -0 0 0 0 0 0 0 0 0 0 0 -0 0 0 -0 -0 0 0 0 0 0 0 0 0 0 0 0 0 0 0 0 0 -0 -0 -0 -0 -0 -0 -0 -0 -0 -0 -0 -0
0 0 0 -0 0 0 0 0 0 0 0 0 0 0 -0 0 -0 0 0 -0 -0 0 0 0 0 0 0 0 0 0 0 0 0 0 0 0 -0 -0 0 -0 -0 -0 -0 -0 0 -0 -0 -0 -0
0 0 -0 0 0 0 0 0 0 0 0 1 0 1 0 -0 -0 0 0 0 0 -0 0 0 0 0 0 0 0 0 0 -0 -0 0 0 0 0 0 0 0 0 0 0 0 0 0 -0 -0 -0
0 0 -0 0 0 0 0 0 0 0 0 0 0 0 0 0 -0 0 -0 -0 0 1 1 0 0 0 0 -0 -0 -0 -0 -0 -0 0 0 0 0 0 0 0 0 0 0 0 0 0 -0 -0 -0
0 0 0 0 0 0 -0 0 0 0 -0 -0 -0 -0 0 0 -0 -0 0 0 0 -0 0 0 -0 0 -0 -0 -0 -0 0 -0 0 0 0 0 0 0 0 0 0 0 0 0 0 0 0 -0 -0
0 0 0 0 0 0 0 0 -0 0 0 0 0 0 0 0 0 0 0 -0 0 -0 -0 -0 -0 -0 0 0 0 0 0 0 0 0 0 0 0 0 0 0 0 0 0 0 0 0 0 -0 -0
-0 0 -0 0 0 0 0 0 -0 0 -0 -0 0 0 0 0 0 0 0 0 0 0 0 0 0 0 0 0 0 0 0 0 0 0 0 0 0 0 0 0 0 0 0 0 0 0 -0 -0 -0
0 0 0 0 0 0 0 -0 0 0 -0 -0 0 0 0 0 0 0 0 0 0 0 0 0 0 0 0 0 0 0 0 0 0 0 0 0 0 0 0 0 0 0 0 0 0 0 0 -0 0
-0 0 0 -0 0 0 0 0 0 0 -0 0 0 1 0 0 0 0 0 0 0 0 0 0 0 0 0 0 0 0 0 -0 0 0 0 0 0 0 0 0 0 0 0 0 0 0 -0 -0 -0
0 0 0 -0 0 0 0 0 0 0 0 0 0 0 -0 0 0 -0 -0 0 0 0 0 0 0 0 0 0 0 0 0 0 0 0 0 0 0 0 0 0 0 0 0 0 0 0 -0 -0 0
0 0 0 -0 0 0 0 0 0 0 1 0 0 0 -0 -0 -0 -0 0 0 0 0 0 0 0 0 0 0 0 0 0 0 0 0 0 0 0 0 0 0 0 0 0 0 0 0 0 0 0
-0 0 -0 0 0 0 0 0 -0 -1 1 0 0 0 -0 -0 -0 -0 0 0 0 0 0 0 0 0 0 0 0 0 0 0 0 0 0 0 0 0 0 0 0 0 0 -0 0 0 0 0 0
0 0 0 0 0 0 0 0 -0 0 0 0 0 0 0 0 0 0 0 0 0 0 0 0 0 0 0 0 0 0 0 0 0 0 0 0 0 0 0 0 0 0 0 0 0 0 0 0 0
0 0 0 0 0 0 0 0 0 0 0 0 0 0 0 0 0 0 0 0 0 0 0 0 0 0 0 0 0 0 0 0 0 0 0 0 0 0 0 0 0 0 0 0 0 0 0 0 0
0 0 0 0 0 -0 0 0 0 0 0 0 0 0 0 0 0 0 0 0 0 0 0 0 0 0 0 0 0 0 0 0 0 0 0 0 0 0 0 0 0 0 0 0 0 0 0 0 0
0 0 0 -0 -0 0 -0 0 0 0 0 0 0 0 0 0 0 0 0 0 0 0 0 0 0 0 0 0 0 0 0 0 0 0 0 0 0 0 0 0 0 0 0 0 0 0 0 0 0
0 0 0 0 0 0 0 0 0 1 0 0 0 0 0 0 0 0 0 0 0 0 0 -0 0 -0 -0 -0 -0 -0 0 0 0 0 0 0 0 0 0 0 0 0 0 0 0 0 0 0 0
0 0 0 0 0 0 -0 0 0 0 0 0 0 0 0 -0 0 0 0 0 0 -0 -0 -0 0 -0 -0 0 0 0 0 0 0 0 0 0 0 0 0 0 0 0 0 0 0 0 0 0 0
0 0 0 0 0 0 0 0 0 0 0 0 0 -0 -0 -0 0 0 0 0 -0 -0 -0 0 0 0 0 0 0 0 0 0 0 0 0 0 0 0 0 0 0 0 0 0 0 0 0 0 0
0 0 0 0 0 0 0 0 -0 0 0 0 -0 -0 -0 0 0 0 0 0 0 0 -0 0 0 0 0 0 0 0 0 0 0 0 0 0 0 0 0 0 0 0 0 0 0 0 0 0 0
0 0 0 0 0 0 0 0 0 0 0 0 0 0 0 0 0 0 0 0 0 0 0 0 0 0 0 0 0 0 0 0 0 0 0 0 0 0 0 0 0 0 0 0 0 0 0 0 0
0 0 0 0 0 0 0 0 0 0 0 0 0 0 0 0 0 0 0 0 0 0 0 0 0 0 0 0 0 0 0 0 0 0 0 0 0 -0 -0 0 -0 0 0 0 0 0 0 0 0
0 0 0 0 0 0 0 0 0 0 0 0 0 0 0 0 0 0 0 0 0 0 0 0 0 0 0 0 0 0 0 0 0 0 0 0 0 0 0 0 0 0 0 0 0 0 0 0 0
Wind_Speed_500mb
41 38 25 12 4 9 7 14 16 13 4 26 18 23 15 9 5 11 40 23 27 36 37 38 36 34 34 33 33 31 31 30 30 32 34 35 34 31 30 30 29 28 27 27 27 28 28 29 29
46 33 13 12 6 6 8 6 4 9 14 34 41 38 16 8 32 49 51 28 25 34 37 36 35 34 33 34 33 33 33 34 35 37 36 34 32 32 30 28 28 28 28 29 29 30 31 32 33
41 19 5 6 6 9 8 12 22 19 22 27 23 30 16 13 51 41 44 39 27 37 37 37 35 36 37 39 38 38 38 38 37 35 34 33 33 30 30 29 28 28 28 29 31 32 33 35 36
19 5 10 1 13 5 17 20 41 23 26 24 25 13 17 26 53 45 50 39 26 37 38 39 39 38 38 39 39 39 38 37 35 32 35 33 31 30 28 27 25 26 27 29 31 34 36 36 36
13 9 4 5 16 7 27 27 37 16 30 44 36 15 22 40 35 44 43 33 37 42 41 40 39 39 39 39 38 36 35 34 32 33 31 32 30 28 26 25 25 27 28 31 34 38 41 40 39
10 6 7 12 12 15 11 32 23 67 59 23 30 22 11 31 29 51 42 36 32 39 45 46 43 42 41 38 36 35 33 33 32 29 29 27 26 25 26 29 29 29 31 31 36 42 45 43 42
14 2 14 19 14 37 7 14 26 37 42 15 32 13 25 31 32 49 45 43 32 27 43 46 46 44 39 35 32 32 33 31 30 30 28 28 23 25 27 31 32 32 34 35 40 41 39 41 51
41 8 17 22 8 28 5 4 30 20 6 63 48 9 15 55 41 42 50 55 39 35 43 49 48 45 42 39 35 36 31 30 29 27 24 21 23 24 22 30 32 35 31 32 32 32 33 39 48
34 2 14 12 7 11 19 8 5 13 46 30 49 36 40 38 47 45 55 56 48 44 52 46 43 40 40 40 41 36 33 32 31 26 18 20 21 22 24 22 28 29 25 23 23 29 42 46 55
15 7 14 16 16 10 27 8 12 13 30 24 46 53 49 18 46 48 43 57 61 60 64 58 49 35 35 40 40 36 31 26 23 20 21 15 18 24 22 14 19 24 17 13 15 25 57 57 65
29 14 17 12 26 32 26 40 19 5 5 64 63 67 43 46 39 42 41 48 28 78 75 57 48 39 36 34 35 27 24 23 22 16 18 13 12 10 12 8 10 20 17 27 36 40 60 53 64
8 24 8 7 19 12 15 24 28 34 9 23 74 64 45 34 25 41 39 51 65 98 58 78 49 42 40 36 37 29 22 21 25 12 10 12 16 15 13 13 5 14 25 32 41 46 55 56 66
7 16 5 3 6 3 17 25 17 31 13 54 78 54 51 39 17 24 27 56 54 64 81 71 47 40 42 33 43 51 49 36 21 6 11 16 22 20 19 18 16 19 27 36 44 53 49 58 72
19 24 29 12 3 6 6 21 30 33 91 73 70 65 50 34 29 33 7 14 30 39 44 42 47 34 50 49 48 42 33 19 13 17 7 12 20 26 21 20 18 25 37 39 46 48 56 67 74
20 11 19 28 19 6 10 19 18 45 78 94 73 67 51 39 20 5 10 29 35 48 52 36 42 39 34 40 39 30 29 21 17 21 26 24 24 27 26 32 41 40 34 46 51 56 65 68 59
16 10 11 26 14 5 11 12 12 40 101 77 68 60 57 45 29 19 25 39 53 49 24 25 34 36 38 40 41 34 16 33 32 27 32 27 30 34 40 45 30 34 40 47 57 66 63 48 42
13 15 15 9 16 7 15 10 10 47 100 78 72 64 55 50 32 14 35 35 46 17 25 28 38 33 29 26 20 17 15 16 17 19 24 33 40 39 40 39 38 42 48 54 62 56 51 43 29
12 5 12 12 9 15 11 11 17 38 93 73 70 70 58 49 47 35 22 24 27 13 13 27 32 26 13 17 16 3 10 18 20 25 33 41 41 42 44 42 42 44 52 55 60 43 40 28 32
14 17 16 10 9 7 9 9 36 78 74 68 68 67 70 47 39 39 36 34 35 32 26 19 11 5 4 10 14 6 32 32 29 23 24 28 32 39 42 36 42 49 47 54 57 40 32 27 31
20 20 16 18 19 16 16 17 50 55 48 65 58 58 66 49 44 39 34 35 35 27 24 19 13 10 15 10 13 25 26 19 20 21 24 26 28 35 26 36 38 39 47 50 38 26 27 27 28
17 18 19 17 19 16 11 20 28 24 61 72 66 63 56 48 42 43 39 31 29 28 21 17 11 7 2 10 15 19 19 26 28 40 31 28 28 27 34 36 35 34 39 47 27 19 23 27 25
13 13 14 17 17 11 3 7 18 17 39 51 50 45 42 43 40 37 36 32 25 30 18 19 20 10 20 21 24 30 26 21 33 33 36 34 35 39 29 30 27 28 36 34 24 21 21 19 23
9 18 16 17 22 16 37 13 9 13 20 24 36 33 27 35 41 30 28 22 21 19 19 20 19 24 23 25 31 43 40 35 41 43 41 29 25 24 26 26 21 28 33 27 26 20 22 19 23
20 27 24 13 7 8 11 9 7 4 9 14 27 22 30 41 41 37 35 33 31 31 31 32 33 30 45 41 39 27 30 35 41 40 34 26 17 25 23 22 27 28 34 22 19 23 24 22 21
19 12 8 11 11 9 14 19 11 24 28 29 25 25 34 34 35 29 28 34 28 28 29 27 29 42 38 34 30 33 34 35 35 39 37 34 32 31 29 25 26 27 25 25 23 23 21 18 19
9 8 7 5 7 17 23 8 10 26 44 34 27 26 30 30 29 24 24 35 25 25 24 34 34 29 29 37 32 30 40 37 39 34 33 35 32 25 21 27 24 22 25 22 26 24 16 16 15
2 4 9 4 9 8 8 11 12 24 29 40 27 29 25 21 20 10 22 23 23 27 25 32 26 37 47 45 38 39 37 38 39 35 36 33 35 33 30 32 31 32 31 25 26 18 15 14 10
4 6 10 8 5 8 6 12 10 17 18 19 20 28 30 19 11 22 22 20 38 38 21 25 39 43 38 39 40 42 44 45 36 36 39 40 36 40 35 28 24 23 21 22 12 9 9 7 7
12 10 9 5 5 5 2 8 14 22 16 12 13 23 14 8 9 18 17 25 17 15 32 43 37 34 39 40 43 42 43 53 47 28 28 31 28 27 32 32 24 17 13 7 5 4 6 12 16
8 4 4 7 9 5 5 6 11 9 13 20 19 16 11 6 8 13 22 17 26 41 31 35 35 36 39 44 45 42 42 45 41 28 28 31 28 26 30 28 22 18 17 11 10 5 4 10 15
Wind_Direction_500mb
317 334 334 307 97 68 223 209 172 258 50 73 88 108 105 31 84 160 151 166 145 149 151 149 149 146 141 137 133 130 126 122 120 118 114 109 103 97 94 91 86 79 71 65 59 49 40 34 27
316 327 303 256 126 80 265 136 212 132 144 118 112 114 67 66 102 126 138 160 154 150 148 147 146 144 140 136 133 132 130 128 126 122 116 112 107 102 96 87 80 74 65 55 46 38 32 24 18
320 322 273 183 160 171 229 195 213 181 168 154 109 104 105 99 131 141 158 164 161 147 145 147 149 147 144 141 139 138 136 132 127 122 117 112 107 99 93 86 74 64 56 48 41 34 28 21 15
330 12 256 154 276 290 191 222 203 168 124 94 99 79 108 158 153 164 163 172 158 149 150 150 150 147 144 140 137 138 134 129 127 123 119 113 107 101 90 78 66 57 50 43 35 27 21 16 11
319 278 309 288 249 265 221 140 129 170 79 88 102 10 113 151 168 170 170 178 162 151 152 150 148 144 141 138 138 133 131 129 127 122 115 112 106 97 84 69 59 51 42 33 27 22 18 15 9
291 286 318 298 317 325 123 115 106 92 111 110 75 94 347 161 169 154 156 169 143 147 153 151 148 146 143 143 137 136 134 130 124 119 113 104 96 82 72 53 43 36 31 27 21 17 17 12 6
234 62 260 278 292 290 122 148 118 128 127 164 152 122 151 152 152 154 164 174 170 173 158 152 150 149 145 141 135 134 128 122 113 104 94 79 71 63 46 32 33 28 28 27 25 26 19 1 352
252 125 289 269 278 271 182 142 142 139 141 137 135 102 310 160 153 170 171 177 177 167 168 161 157 153 149 143 137 131 122 113 102 92 95 77 66 44 42 34 32 33 35 36 33 21 11 352 344
255 44 263 260 341 191 186 138 183 144 136 125 167 101 82 166 165 174 175 184 181 171 172 168 160 155 149 141 134 129 126 119 109 94 58 63 45 35 28 25 33 25 31 35 20 17 352 345 347
188 137 299 261 318 2 359 357 186 166 112 111 115 108 129 225 194 191 186 183 187 179 168 161 165 146 150 139 133 129 125 130 117 98 88 70 58 52 46 50 20 23 18 2 344 316 343 346 348
224 202 245 331 27 9 346 321 303 40 5 150 121 128 110 208 318 53 8 1 210 184 163 143 141 115 134 130 128 114 94 105 114 140 109 135 166 207 251 329 353 0 322 309 307 317 336 341 343
263 272 249 5 43 339 322 351 356 357 87 112 148 143 158 175 153 101 66 34 7 28 123 136 122 117 116 113 125 123 122 132 153 176 220 222 238 221 250 284 293 313 306 309 314 321 328 334 333
310 297 301 94 325 286 340 325 345 329 83 137 128 123 142 145 124 94 105 68 40 59 75 102 135 136 133 139 147 141 134 130 143 191 275 244 253 260 287 291 283 307 303 306 310 317 326 324 325
321 313 329 322 341 326 57 318 324 38 78 122 105 98 110 110 119 140 88 11 125 108 118 119 119 139 154 151 156 164 169 182 208 202 226 282 291 293 299 297 301 293 303 299 311 323 323 324 325
310 344 308 286 253 108 60 341 36 67 78 91 88 99 103 86 103 160 197 156 166 153 145 185 169 172 173 178 190 179 187 213 241 258 272 271 289 291 293 298 298 295 311 314 319 323 322 323 326
310 295 280 269 148 153 109 297 40 73 92 90 88 88 89 90 77 97 129 161 157 168 193 213 193 199 199 185 187 193 284 319 320 304 295 282 278 283 294 307 311 312 317 323 324 324 328 333 333
299 258 249 278 98 101 68 337 86 86 103 97 93 90 86 81 69 105 164 164 178 198 221 194 203 193 176 178 189 306 352 350 321 297 274 267 272 283 310 309 310 319 322 325 327 330 334 342 354
317 282 19 79 35 51 22 343 320 103 93 97 95 92 85 82 84 76 105 183 197 253 192 196 195 188 227 265 287 256 306 300 305 296 299 296 293 293 296 298 311 316 323 329 334 330 339 346 350
339 344 33 108 38 62 8 317 15 94 93 94 94 100 97 90 94 93 105 123 130 125 133 138 153 185 191 180 205 255 330 318 306 311 307 300 295 297 296 297 318 321 325 334 334 332 338 348 350
30 34 359 347 2 21 346 51 60 63 77 82 84 87 89 93 93 87 89 93 109 116 120 121 121 144 189 245 272 339 346 353 339 318 305 297 288 291 287 315 315 321 326 332 331 332 338 344 353
49 28 2 339 327 333 322 64 65 66 72 65 63 79 83 95 96 102 108 110 121 117 111 82 82 62 336 343 323 330 329 323 322 322 306 310 308 296 304 312 303 316 320 329 319 318 333 336 357
8 356 339 325 353 300 44 270 54 70 67 66 63 63 78 94 93 104 108 116 100 106 93 67 58 46 7 2 349 341 322 324 320 314 317 315 309 309 296 291 305 302 318 326 306 310 315 334 332
328 25 356 321 306 287 276 92 191 100 76 76 74 60 71 84 94 85 73 66 56 47 46 39 34 36 27 15 357 339 328 320 313 313 313 301 291 299 314 308 300 303 317 316 300 310 314 321 321
16 3 336 331 300 16 7 93 37 5 103 82 70 63 70 71 72 74 67 57 48 37 27 16 6 0 343 342 354 343 319 319 319 320 311 312 305 313 313 303 309 322 326 313 314 316 313 311 312
3 2 343 10 353 251 353 64 82 56 71 92 93 78 77 78 75 66 55 35 29 23 21 16 5 2 3 350 336 321 320 328 319 316 316 315 311 293 308 307 313 314 321 316 319 311 311 309 299
293 81 129 278 277 281 321 58 87 87 87 85 105 121 104 93 81 65 38 13 17 13 15 357 1 0 348 342 340 336 335 328 326 323 321 323 317 311 309 307 295 305 303 302 299 303 292 293 291
325 20 269 191 302 29 128 91 116 115 121 129 156 140 107 90 92 66 11 8 16 20 11 6 2 354 344 347 346 343 344 338 334 327 325 320 321 316 305 293 289 291 286 281 291 287 281 279 266
2 336 19 2 334 313 83 83 356 122 121 130 138 124 118 120 88 8 16 27 10 13 38 5 0 360 351 359 3 352 340 334 335 318 337 330 314 331 323 315 298 305 296 284 283 300 293 318 330
1 22 30 68 1 242 335 82 50 83 93 107 100 115 121 96 352 6 27 14 39 18 353 355 4 5 2 356 356 351 350 340 310 342 334 339 344 343 340 344 335 346 316 306 7 18 355 0 334
30 233 337 144 255 255 137 89 358 42 113 139 160 166 123 52 5 37 16 33 355 352 8 11 357 350 358 350 349 348 348 353 2 349 347 346 340 352 342 341 337 346 335 7 71 3 0 330 311
Wind_Speed_850mb
41 38 25 12 4 9 7 14 16 13 4 26 18 23 15 9 5 11 40 23 27 36 37 38 36 34 34 33 33 31 31 30 30 32 34 35 34 31 30 30 29 28 27 27 27 28 28 29 29
46 33 13 12 6 6 8 6 4 9 14 34 41 38 16 8 32 49 51 28 25 34 37 36 35 34 33 34 33 33 33 34 35 37 36 34 32 32 30 28 28 28 28 29 29 30 31 32 33
41 19 5 6 6 9 8 12 22 19 22 27 23 30 16 13 51 41 44 39 27 37 37 37 35 36 37 39 38 38 38 38 37 35 34 33 33 30 30 29 28 28 28 29 31 32 33 35 36
19 5 10 1 13 5 17 20 41 23 26 24 25 13 17 26 53 45 50 39 26 37 38 39 39 38 38 39 39 39 38 37 35 32 35 33 31 30 28 27 25 26 27 29 31 34 36 36 36
13 9 4 5 16 7 27 27 37 16 30 44 36 15 22 40 35 44 43 33 37 42 41 40 39 39 39 39 38 36 35 34 32 33 31 32 30 28 26 25 25 27 28 31 34 38 41 40 39
10 6 7 12 12 15 11 32 23 67 59 23 30 22 11 31 29 51 42 36 32 39 45 46 43 42 41 38 36 35 33 33 32 29 29 27 26 25 26 29 29 29 31 31 36 42 45 43 42
14 2 14 19 14 37 7 14 26 37 42 15 32 13 25 31 32 49 45 43 32 27 43 46 46 44 39 35 32 32 33 31 30 30 28 28 23 25 27 31 32 32 34 35 40 41 39 41 51
41 8 17 22 8 28 5 4 30 20 6 63 48 9 15 55 41 42 50 55 39 35 43 49 48 45 42 39 35 36 31 30 29 27 24 21 23 24 22 30 32 35 31 32 32 32 33 39 48
34 2 14 12 7 11 19 8 5 13 46 30 49 36 40 38 47 45 55 56 48 44 52 46 43 40 40 40 41 36 33 32 31 26 18 20 21 22 24 22 28 29 25 23 23 29 42 46 55
15 7 14 16 16 10 27 8 12 13 30 24 46 53 49 18 46 48 43 57 61 60 64 58 49 35 35 40 40 36 31 26 23 20 21 15 18 24 22 14 19 24 17 13 15 25 57 57 65
29 14 17 12 26 32 26 40 19 5 5 64 63 67 43 46 39 42 41 48 28 78 75 57 48 39 36 34 35 27 24 23 22 16 18 13 12 10 12 8 10 20 17 27 36 40 60 53 64
8 24 8 7 19 12 15 24 28 34 9 23 74 64 45 34 25 41 39 51 65 98 58 78 49 42 40 36 37 29 22 21 25 12 10 12 16 15 13 13 5 14 25 32 41 46 55 56 66
7 16 5 3 6 3 17 25 17 31 13 54 78 54 51 39 17 24 27 56 54 64 81 71 47 40 42 33 43 51 49 36 21 6 11 16 22 20 19 18 16 19 27 36 44 53 49 58 72
19 24 29 12 3 6 6 21 30 33 91 73 70 65 50 34 29 33 7 14 30 39 44 42 47 34 50 49 48 42 33 19 13 17 7 12 20 26 21 20 18 25 37 39 46 48 56 67 74
20 11 19 28 19 6 10 19 18 45 78 94 73 67 51 39 20 5 10 29 35 48 52 36 42 39 34 40 39 30 29 21 17 21 26 24 24 27 26 32 41 40 34 46 51 56 65 68 59
16 10 11 26 14 5 11 12 12 40 101 77 68 60 57 45 29 19 25 39 53 49 24 25 34 36 38 40 41 34 16 33 32 27 32 27 30 34 40 45 30 34 40 47 57 66 63 48 42
13 15 15 9 16 7 15 10 10 47 100 78 72 64 55 50 32 14 35 35 46 17 25 28 38 33 29 26 20 17 15 16 17 19 24 33 40 39 40 39 38 42 48 54 62 56 51 43 29
12 5 12 12 9 15 11 11 17 38 93 73 70 70 58 49 47 35 22 24 27 13 13 27 32 26 13 17 16 3 10 18 20 25 33 41 41 42 44 42 42 44 52 55 60 43 40 28 32
14 17 16 10 9 7 9 9 36 78 74 68 68 67 70 47 39 39 36 34 35 32 26 19 11 5 4 10 14 6 32 32 29 23 24 28 32 39 42 36 42 49 47 54 57 40 32 27 31
20 20 16 18 19 16 16 17 50 55 48 65 58 58 66 49 44 39 34 35 35 27 24 19 13 10 15 10 13 25 26 19 20 21 24 26 28 35 26 36 38 39 47 50 38 26 27 27 28
17 18 19 17 19 16 11 20 28 24 61 72 66 63 56 48 42 43 39 31 29 28 21 17 11 7 2 10 15 19 19 26 28 40 31 28 28 27 34 36 35 34 39 47 27 19 23 27 25
13 13 14 17 17 11 3 7 18 17 39 51 50 45 42 43 40 37 36 32 25 30 18 19 20 10 20 21 24 30 26 21 33 33 36 34 35 39 29 30 27 28 36 34 24 21 21 19 23
9 18 16 17 22 16 37 13 9 13 20 24 36 33 27 35 41 30 28 22 21 19 19 20 19 24 23 25 31 43 40 35 41 43 41 29 25 24 26 26 21 28 33 27 26 20 22 19 23
20 27 24 13 7 8 11 9 7 4 9 14 27 22 30 41 41 37 35 33 31 31 31 32 33 30 45 41 39 27 30 35 41 40 34 26 17 25 23 22 27 28 34 22 19 23 24 22 21
19 12 8 11 11 9 14 19 11 24 28 29 25 25 34 34 35 29 28 34 28 28 29 27 29 42 38 34 30 33 34 35 35 39 37 34 32 31 29 25 26 27 25 25 23 23 21 18 19
9 8 7 5 7 17 23 8 10 26 44 34 27 26 30 30 29 24 24 35 25 25 24 34 34 29 29 37 32 30 40 37 39 34 33 35 32 25 21 27 24 22 25 22 26 24 16 16 15
2 4 9 4 9 8 8 11 12 24 29 40 27 29 25 21 20 10 22 23 23 27 25 32 26 37 47 45 38 39 37 38 39 35 36 33 35 33 30 32 31 32 31 25 26 18 15 14 10
4 6 10 8 5 8 6 12 10 17 18 19 20 28 30 19 11 22 22 20 38 38 21 25 39 43 38 39 40 42 44 45 36 36 39 40 36 40 35 28 24 23 21 22 12 9 9 7 7
12 10 9 5 5 5 2 8 14 22 16 12 13 23 14 8 9 18 17 25 17 15 32 43 37 34 39 40 43 42 43 53 47 28 28 31 28 27 32 32 24 17 13 7 5 4 6 12 16
8 4 4 7 9 5 5 6 11 9 13 20 19 16 11 6 8 13 22 17 26 41 31 35 35 36 39 44 45 42 42 45 41 28 28 31 28 26 30 28 22 18 17 11 10 5 4 10 15
Wind_Direction_850mb
317 334 334 307 97 68 223 209 172 258 50 73 88 108 105 31 84 160 151 166 145 149 151 149 149 146 141 137 133 130 126 122 120 118 114 109 103 97 94 91 86 79 71 65 59 49 40 34 27
316 327 303 256 126 80 265 136 212 132 144 118 112 114 67 66 102 126 138 160 154 150 148 147 146 144 140 136 133 132 130 128 126 122 116 112 107 102 96 87 80 74 65 55 46 38 32 24 18
320 322 273 183 160 171 229 195 213 181 168 154 109 104 105 99 131 141 158 164 161 147 145 147 149 147 144 141 139 138 136 132 127 122 117 112 107 99 93 86 74 64 56 48 41 34 28 21 15
330 12 256 154 276 290 191 222 203 168 124 94 99 79 108 158 153 164 163 172 158 149 150 150 150 147 144 140 137 138 134 129 127 123 119 113 107 101 90 78 66 57 50 43 35 27 21 16 11
319 278 309 288 249 265 221 140 129 170 79 88 102 10 113 151 168 170 170 178 162 151 152 150 148 144 141 138 138 133 131 129 127 122 115 112 106 97 84 69 59 51 42 33 27 22 18 15 9
291 286 318 298 317 325 123 115 106 92 111 110 75 94 347 161 169 154 156 169 143 147 153 151 148 146 143 143 137 136 134 130 124 119 113 104 96 82 72 53 43 36 31 27 21 17 17 12 6
234 62 260 278 292 290 122 148 118 128 127 164 152 122 151 152 152 154 164 174 170 173 158 152 150 149 145 141 135 134 128 122 113 104 94 79 71 63 46 32 33 28 28 27 25 26 19 1 352
252 125 289 269 278 271 182 142 142 139 141 137 135 102 310 160 153 170 171 177 177 167 168 161 157 153 149 143 137 131 122 113 102 92 95 77 66 44 42 34 32 33 35 36 33 21 11 352 344
255 44 263 260 341 191 186 138 183 144 136 125 167 101 82 166 165 174 175 184 181 171 172 168 160 155 149 141 134 129 126 119 109 94 58 63 45 35 28 25 33 25 31 35 20 17 352 345 347
188 137 299 261 318 2 359 357 186 166 112 111 115 108 129 225 194 191 186 183 187 179 168 161 165 146 150 139 133 129 125 130 117 98 88 70 58 52 46 50 20 23 18 2 344 316 343 346 348
224 202 245 331 27 9 346 321 303 40 5 150 121 128 110 208 318 53 8 1 210 184 163 143 141 115 134 130 128 114 94 105 114 140 109 135 166 207 251 329 353 0 322 309 307 317 336 341 343
263 272 249 5 43 339 322 351 356 357 87 112 148 143 158 175 153 101 66 34 7 28 123 136 122 117 116 113 125 123 122 132 153 176 220 222 238 221 250 284 293 313 306 309 314 321 328 334 333
310 297 301 94 325 286 340 325 345 329 83 137 128 123 142 145 124 94 105 68 40 59 75 102 135 136 133 139 147 141 134 130 143 191 275 244 253 260 287 291 283 307 303 306 310 317 326 324 325
321 313 329 322 341 326 57 318 324 38 78 122 105 98 110 110 119 140 88 11 125 108 118 119 119 139 154 151 156 164 169 182 208 202 226 282 291 293 299 297 301 293 303 299 311 323 323 324 325
310 344 308 286 253 108 60 341 36 67 78 91 88 99 103 86 103 160 197 156 166 153 145 185 169 172 173 178 190 179 187 213 241 258 272 271 289 291 293 298 298 295 311 314 319 323 322 323 326
310 295 280 269 148 153 109 297 40 73 92 90 88 88 89 90 77 97 129 161 157 168 193 213 193 199 199 185 187 193 284 319 320 304 295 282 278 283 294 307 311 312 317 323 324 324 328 333 333
299 258 249 278 98 101 68 337 86 86 103 97 93 90 86 81 69 105 164 164 178 198 221 194 203 193 176 178 189 306 352 350 321 297 274 267 272 283 310 309 310 319 322 325 327 330 334 342 354
317 282 19 79 35 51 22 343 320 103 93 97 95 92 85 82 84 76 105 183 197 253 192 196 195 188 227 265 287 256 306 300 305 296 299 296 293 293 296 298 311 316 323 329 334 330 339 346 350
339 344 33 108 38 62 8 317 15 94 93 94 94 100 97 90 94 93 105 123 130 125 133 138 153 185 191 180 205 255 330 318 306 311 307 300 295 297 296 297 318 321 325 334 334 332 338 348 350
30 34 359 347 2 21 346 51 60 63 77 82 84 87 89 93 93 87 89 93 109 116 120 121 121 144 189 245 272 339 346 353 339 318 305 297 288 291 287 315 315 321 326 332 331 332 338 344 353
49 28 2 339 327 333 322 64 65 66 72 65 63 79 83 95 96 102 108 110 121 117 111 82 82 62 336 343 323 330 329 323 322 322 306 310 308 296 304 312 303 316 320 329 319 318 333 336 357
8 356 339 325 353 300 44 270 54 70 67 66 63 63 78 94 93 104 108 116 100 106 93 67 58 46 7 2 349 341 322 324 320 314 317 315 309 309 296 291 305 302 318 326 306 310 315 334 332
328 25 356 321 306 287 276 92 191 100 76 76 74 60 71 84 94 85 73 66 56 47 46 39 34 36 27 15 357 339 328 320 313 313 313 301 291 299 314 308 300 303 317 316 300 310 314 321 321
16 3 336 331 300 16 7 93 37 5 103 82 70 63 70 71 72 74 67 57 48 37 27 16 6 0 343 342 354 343 319 319 319 320 311 312 305 313 313 303 309 322 326 313 314 316 313 311 312
3 2 343 10 353 251 353 64 82 56 71 92 93 78 77 78 75 66 55 35 29 23 21 16 5 2 3 350 336 321 320 328 319 316 316 315 311 293 308 307 313 314 321 316 319 311 311 309 299
293 81 129 278 277 281 321 58 87 87 87 85 105 121 104 93 81 65 38 13 17 13 15 357 1 0 348 342 340 336 335 328 326 323 321 323 317 311 309 307 295 305 303 302 299 303 292 293 291
325 20 269 191 302 29 128 91 116 115 121 129 156 140 107 90 92 66 11 8 16 20 11 6 2 354 344 347 346 343 344 338 334 327 325 320 321 316 305 293 289 291 286 281 291 287 281 279 266
2 336 19 2 334 313 83 83 356 122 121 130 138 124 118 120 88 8 16 27 10 13 38 5 0 360 351 359 3 352 340 334 335 318 337 330 314 331 323 315 298 305 296 284 283 300 293 318 330
1 22 30 68 1 242 335 82 50 83 93 107 100 115 121 96 352 6 27 14 39 18 353 355 4 5 2 356 356 351 350 340 310 342 334 339 344 343 340 344 335 346 316 306 7 18 355 0 334
30 233 337 144 255 255 137 89 358 42 113 139 160 166 123 52 5 37 16 33 355 352 8 11 357 350 358 350 349 348 348 353 2 349 347 346 340 352 342 341 337 346 335 7 71 3 0 330 311